Moorhead, MN

10:48 AM CDT on June 27, 2017 (GMT -0500)
Moorhead Municipal

Weather History for KJKJ - November, 2012

Change the Weather History Date:

Monday, November 12, 2012

  Actual Average (KFAR) Record (KFAR)
Temperature  
Mean Temperature 19 °F -  
Max Temperature 23 °F 34 °F 65 °F (1981)
Min Temperature 15 °F 19 °F -7 °F (1919)
Degree Days  
Heating Degree Days 46    
Moisture  
Dew Point 15 °F    
Average Humidity 88    
Maximum Humidity 100    
Minimum Humidity 79    
Precipitation  
Precipitation 0.00 in - - ()
Sea Level Pressure  
Sea Level Pressure 30.05 in    
Wind  
Wind Speed 14 mph (WNW)    
Max Wind Speed 23 mph    
Max Gust Speed 28 mph    
Visibility 8 miles    
Events Snow    
Averages and records for this station are not official NWS values.
T = Trace of Precipitation, MM = Missing Value Source: NWS Daily Summary

Daily Weather History Graph

Daily Weather History Graph

Search for Another Location

Airport or City:

Trip Planner

Search our weather history database for the weather conditions in past years. The results will help you decide how hot, cold, wet, or windy it might be!

Date:

Astronomy

Nov. 12, 2012 Rise Set
Actual Time 7:25 AM CST 4:55 PM CST
Civil Twilight 6:53 AM CST 5:28 PM CST
Nautical Twilight 6:16 AM CST 6:04 PM CST
Astronomical Twilight 5:40 AM CST 6:40 PM CST
Moon 5:49 AM CST (11/12) 4:02 PM CST (11/12)
Length of Visible Light 10h 34m
Length of Day
9h 29m
Waning Crescent, 2% of the Moon is Illuminated
Nov 12
Waning Crescent
Nov 13
New
Nov 20
First Quarter
Nov 28
Full
Dec 6
Last Quarter

Hourly Weather History & Observations

Time (CST) Temp. Windchill Dew Point Humidity Pressure Visibility Wind Dir Wind Speed Gust Speed Precip Events Conditions
12:14 AM 19.4 °F 6.0 °F 19.4 °F 100% 29.85 in 1.8 mi West 13.8 mph - N/A Snow Light Snow
12:54 AM 19.4 °F 7.2 °F 19.4 °F 100% 29.86 in 1.5 mi West 11.5 mph - N/A Snow Light Snow
1:15 AM 19.4 °F 5.0 °F 17.6 °F 93% 29.86 in 2.5 mi WNW 16.1 mph - N/A Snow Light Snow
1:35 AM 19.4 °F 5.5 °F 17.6 °F 93% 29.86 in 5.0 mi WNW 15.0 mph - N/A Snow Light Snow
1:54 AM 19.4 °F 5.0 °F 15.8 °F 86% 29.86 in 7.0 mi West 16.1 mph - N/A Snow Light Snow
2:15 AM 19.4 °F 5.5 °F 15.8 °F 86% 29.86 in 10.0 mi West 15.0 mph - N/A   Overcast
2:35 AM 19.4 °F 4.5 °F 15.8 °F 86% 29.87 in 10.0 mi WNW 17.3 mph - N/A   Overcast
2:55 AM 19.4 °F 4.1 °F 15.8 °F 86% 29.87 in 10.0 mi West 18.4 mph 21.9 mph N/A   Mostly Cloudy
3:15 AM 19.4 °F 4.1 °F 15.8 °F 86% 29.87 in 10.0 mi WNW 18.4 mph - N/A   Overcast
3:35 AM 17.6 °F 3.2 °F 15.8 °F 93% 29.88 in 10.0 mi WNW 15.0 mph - N/A   Overcast
3:55 AM 17.6 °F 1.3 °F 15.8 °F 93% 29.88 in 10.0 mi WNW 19.6 mph - N/A   Overcast
4:15 AM 19.4 °F 4.5 °F 15.8 °F 86% 29.88 in 10.0 mi WNW 17.3 mph - N/A   Overcast
4:35 AM 19.4 °F 4.1 °F 15.8 °F 86% 29.89 in 10.0 mi WNW 18.4 mph - N/A   Overcast
4:55 AM 17.6 °F 1.3 °F 15.8 °F 93% 29.90 in 10.0 mi WNW 19.6 mph - N/A   Overcast
5:15 AM 17.6 °F 1.3 °F 15.8 °F 93% 29.91 in 7.0 mi WNW 19.6 mph - N/A   Overcast
5:34 AM 17.6 °F 0.1 °F 15.8 °F 93% 29.91 in 4.0 mi WNW 23.0 mph 27.6 mph N/A   Overcast
5:55 AM 17.6 °F 2.2 °F 14.0 °F 86% 29.92 in 5.0 mi WNW 17.3 mph 24.2 mph N/A   Overcast
6:15 AM 17.6 °F 0.5 °F 14.0 °F 86% 29.92 in 7.0 mi WNW 21.9 mph - N/A   Overcast
6:34 AM 15.8 °F 0.9 °F 12.2 °F 86% 29.93 in 10.0 mi WNW 15.0 mph 24.2 mph N/A   Overcast
6:55 AM 15.8 °F 0.3 °F 12.2 °F 86% 29.94 in 10.0 mi WNW 16.1 mph - N/A   Overcast
7:15 AM 15.8 °F -1.1 °F 12.2 °F 86% 29.95 in 7.0 mi WNW 19.6 mph - N/A   Overcast
7:35 AM 15.8 °F -1.5 °F 12.2 °F 86% 29.96 in 7.0 mi WNW 20.7 mph - N/A Snow Light Snow
7:55 AM 15.8 °F 0.3 °F 12.2 °F 86% 29.98 in 5.0 mi WNW 16.1 mph - N/A Snow Light Snow
8:15 AM 15.8 °F -0.2 °F 12.2 °F 86% 29.99 in 5.0 mi WNW 17.3 mph 24.2 mph N/A Snow Light Snow
8:35 AM 15.8 °F -0.6 °F 10.4 °F 79% 29.99 in 5.0 mi WNW 18.4 mph 24.2 mph N/A Snow Light Snow
8:55 AM 15.8 °F -0.6 °F 12.2 °F 86% 30.00 in 7.0 mi NW 18.4 mph - N/A Snow Light Snow
9:15 AM 15.8 °F -0.2 °F 12.2 °F 86% 30.00 in 7.0 mi WNW 17.3 mph - N/A Snow Light Snow
9:55 AM 15.8 °F -0.2 °F 12.2 °F 86% 30.03 in 10.0 mi NW 17.3 mph 21.9 mph N/A   Overcast
10:14 AM 17.6 °F 1.7 °F 12.2 °F 79% 30.04 in 10.0 mi WNW 18.4 mph 23.0 mph N/A   Overcast
10:35 AM 17.6 °F 2.2 °F 12.2 °F 79% 30.05 in 10.0 mi NW 17.3 mph - N/A   Overcast
10:55 AM 17.6 °F 1.7 °F 14.0 °F 86% 30.06 in 10.0 mi NW 18.4 mph 23.0 mph N/A   Overcast
11:14 AM 17.6 °F 2.7 °F 14.0 °F 86% 30.07 in 10.0 mi NW 16.1 mph - N/A   Overcast
11:35 AM 19.4 °F 6.0 °F 15.8 °F 86% 30.07 in 7.0 mi NW 13.8 mph - N/A   Overcast
11:54 AM 19.4 °F 4.5 °F 15.8 °F 86% 30.07 in 7.0 mi NW 17.3 mph - N/A   Overcast
12:15 PM 19.4 °F 5.0 °F 15.8 °F 86% 30.08 in 4.0 mi NW 16.1 mph - N/A Snow Light Snow
12:35 PM 19.4 °F 4.5 °F 15.8 °F 86% 30.08 in 3.0 mi WNW 17.3 mph - N/A Snow Light Snow
12:54 PM 19.4 °F 6.0 °F 15.8 °F 86% 30.08 in 7.0 mi WNW 13.8 mph - N/A Snow Light Snow
1:15 PM 19.4 °F 5.5 °F 17.6 °F 93% 30.08 in 4.0 mi WNW 15.0 mph - N/A Snow Light Snow
1:35 PM 21.2 °F 8.3 °F 17.6 °F 86% 30.09 in 7.0 mi NW 13.8 mph - N/A Snow Light Snow
1:54 PM 21.2 °F 8.3 °F 17.6 °F 86% 30.10 in 7.0 mi WNW 13.8 mph - N/A   Overcast
2:15 PM 21.2 °F 8.3 °F 19.4 °F 93% 30.10 in 5.0 mi NW 13.8 mph - N/A   Overcast
2:34 PM 21.2 °F 8.9 °F 19.4 °F 93% 30.10 in 7.0 mi NW 12.7 mph - N/A   Overcast
2:55 PM 21.2 °F 8.9 °F 19.4 °F 93% 30.11 in 10.0 mi WNW 12.7 mph - N/A   Overcast
3:15 PM 21.2 °F 8.3 °F 17.6 °F 86% 30.12 in 10.0 mi NW 13.8 mph - N/A   Overcast
3:34 PM 21.2 °F 8.9 °F 19.4 °F 93% 30.13 in 10.0 mi WNW 12.7 mph - N/A   Overcast
3:55 PM 21.2 °F 9.5 °F 19.4 °F 93% 30.14 in 10.0 mi WNW 11.5 mph - N/A   Overcast
4:35 PM 23.0 °F 11.1 °F 19.4 °F 86% 30.16 in 10.0 mi West 12.7 mph - N/A   Mostly Cloudy
4:55 PM 21.2 °F 11.7 °F 17.6 °F 86% 30.16 in 10.0 mi WNW 8.1 mph - N/A   Mostly Cloudy
5:15 PM 21.2 °F 10.9 °F 17.6 °F 86% 30.17 in 10.0 mi West 9.2 mph - N/A   Clear
5:35 PM 19.4 °F 11.5 °F 17.6 °F 93% 30.18 in 10.0 mi West 5.8 mph - N/A   Clear
5:55 PM 19.4 °F 12.8 °F 15.8 °F 86% 30.18 in 10.0 mi West 4.6 mph - N/A   Clear
6:14 PM 19.4 °F 14.3 °F 15.8 °F 86% 30.19 in 10.0 mi West 3.5 mph - N/A   Clear
6:35 PM 19.4 °F 11.5 °F 15.8 °F 86% 30.20 in 10.0 mi WSW 5.8 mph - N/A   Clear
6:55 PM 17.6 °F 10.7 °F 15.8 °F 93% 30.20 in 10.0 mi WSW 4.6 mph - N/A   Clear
7:14 PM 17.6 °F 10.7 °F 15.8 °F 93% 30.20 in 10.0 mi WSW 4.6 mph - N/A   Clear
7:35 PM 17.6 °F 10.7 °F 14.0 °F 86% 30.20 in 10.0 mi West 4.6 mph - N/A   Clear
7:55 PM 17.6 °F 8.2 °F 15.8 °F 93% 30.21 in 10.0 mi SW 6.9 mph - N/A   Clear
8:35 PM 15.8 °F 8.6 °F 12.2 °F 86% 30.20 in 10.0 mi SSW 4.6 mph - N/A   Clear
8:54 PM 15.8 °F 7.2 °F 12.2 °F 86% 30.21 in 10.0 mi SW 5.8 mph - N/A   Clear
9:15 PM 15.8 °F 10.2 °F 12.2 °F 86% 30.21 in 10.0 mi SW 3.5 mph - N/A   Clear
9:35 PM 15.8 °F 6.1 °F 12.2 °F 86% 30.21 in 10.0 mi SSW 6.9 mph - N/A   Clear
9:54 PM 17.6 °F 10.7 °F 12.2 °F 79% 30.21 in 10.0 mi SSW 4.6 mph - N/A   Clear
10:15 PM 15.8 °F 7.2 °F 12.2 °F 86% 30.21 in 10.0 mi SSW 5.8 mph - N/A   Clear
10:35 PM 15.8 °F 6.1 °F 12.2 °F 86% 30.21 in 10.0 mi SSW 6.9 mph - N/A   Clear
10:54 PM 15.8 °F 6.1 °F 12.2 °F 86% 30.21 in 10.0 mi SSW 6.9 mph - N/A   Clear
11:15 PM 15.8 °F 10.2 °F 12.2 °F 86% 30.21 in 10.0 mi South 3.5 mph - N/A   Clear
11:35 PM 15.8 °F - 12.2 °F 86% 30.21 in 10.0 mi Calm Calm - N/A   Clear
11:54 PM 15.8 °F 8.6 °F 12.2 °F 86% 30.21 in 10.0 mi South 4.6 mph - N/A   Clear